DECAYED

STARLINK-3767, 52376 (Decayed)

Orbit data source: Space-Track

STARLINK-3767, 52376 was a payload satellite owned by SpaceX/Seattle (US) in LEO that was launched on Fri, 29 Apr 2022 UTC via an FALCON 9 launch vehicle from the Air Force Eastern Test Range (AFETR). Payload-class satellites include a variety of spacecraft equipped with specific instruments for various scientific and technological missions. These include communications satellites like Starlink; space stations such as the ISS; scientific satellites like the Hubble; Earth observation satellites from companies like Planet Labs, Umbra, and HawkEye 360; GPS; miniature CubeSats for education and research; and military/defense satellites.

Not visible in the next 10 days
Identifier
52376, 2022-045AX
Orbit
Decayed
Country
Flag of USUS
Related business
Manufacturer
SpaceX/Seattle
Mission
Decayed Commercial Communications
Bus & Motor
STARLINK, Unknown motor
Mass
297 kg wet, ~275 kg dry
Launch date (UTC)
2022-04-29 (4 years ago)
Launch vehicle
FALCON 9
Launch site
Air Force Eastern Test Range (AFETR)
Object type
Payload
Rocket body
Debris
Shape & HBR
Box + 1 Pan, 10.1 m
Radar Cross Section
11.087 m², Large (>1 m²)

Expand to show TLE details & history
Last TLE update: 1 month ago

TLE from 1 month ago
0 STARLINK-3767
1 52376U 22045AX  26076.24938880  .13918737  12588-4  18195-3 0  9993
2 52376  53.1996 131.7164 0002261 237.9134 122.1699 16.49343596217393
Epoch: 2026-03-17T05:59Z
TLE epoch observation values (Epoch: 2026-03-17T05:59:07.192Z)
Latitude
-0.00004°
Longitude
-132.89381°
Altitude
142.8 km
Speed
7.821 km/s
True Right ascension
08h 46m 51s
True Declination
0° 00' 00"
Sunlit
Object was in full shadow at epoch
Visualization orbit readout
Latitude
Unknown
Longitude
Unknown
Altitude
Unknown
Speed
Unknown
Apparent Right ascension
Unknown
Apparent Declination
Unknown
Sunlit
N/A
Visualization observer readout
Local Sidereal Time
12:08:22
Azimuth
Unknown
Elevation
Unknown
Doppler factor
Unknown
Orbital elements
Apogee altitude
142.801 km
Perigee altitude
139.853 km
Semi-major axis
6,519.464 km
Eccentricity
0.00023
Inclination
53.1996°
RAAN
131.7164°
Arg. of periapsis
237.9134°
True anomaly
122.19183°
Mean anomaly
122.1699°
Eccentric anomaly
122.18086°
Mean motion
4.12311 °/min
Orbital period
87.31 mins
BSTAR
0.00018195
Loading maneuver chart data...
Computing Atmospheric mass density...
Loading historical data...
Loading historical data...
Loading historical data...
Loading historical data...
Loading historical data...
Loading historical data...
Loading historical data...

Documentation

Showing up to 5 results
|